Погода в Окино-Ключах

Россия / Республика Бурятия     50°35′42″N   107°06′21″E
темп.,
°C
ветер,
м/с
пор.,
м/с
влажн.,
%
обл.,
%
осадки,
мм/ч
давл.,
гПа
погр.,
м
4 марта, чт
чт423:00−10с3586100 0.2 1017175
02:00−13ссв51279100 0.3 1021520
05:00−16св3678100 0.0 1026144
08:00−18св2478100 0.0 103090
11:00−13с256615 0.0 1031687
14:00−11з346627 0.0 10311013
17:00−11зюз127086 0.0 1033669
20:00−17вюв118485 0.0 103720
5 марта, пт
пт523:00−19ююв118711 0.0 103920
02:00−19ю22896 0.0 104020
05:00−20ю22910 0.0 104021
08:00−21юв11890 0.0 104120
11:00−13ююз13740 0.0 1037352
14:00−7ююз49670 0.0 1033800
17:00−5ююз49730 0.0 1029694
20:00−11ю337712 0.0 103127
6 марта, сб
сб623:00−13ю34770 0.0 102937
02:00−14ю23750 0.0 102828
05:00−15ю117866 0.0 102721
08:00−13ссз228583 0.0 102959
11:00−11юз2279100 0.0 1029251
14:00−6юз227676 0.0 1029356
17:00−4ююз24800 0.0 1028300
20:00−9ююв33840 0.0 103025
7 марта, вс
вс723:00−11ю33850 0.0 103027
02:00−12ю23860 0.0 102926
05:00−13ю22860 0.0 102822
08:00−13ю12850 0.0 102821
11:00−6ююз237120 0.0 1025326
14:00−2юз357356 0.0 1023505
17:00−1юз238196 0.0 1021171
20:00−7ю228169 0.0 102421
8 марта, пн
пн823:00−9ю22800 0.0 102521
02:00−10ю228115 0.0 102621
05:00−11ю228383 0.0 102621
08:00−11ю228346 0.0 102821
11:00−5юз23730 0.0 1025291
14:00−1юз34730 0.0 1024451
17:00−1юз24790 0.0 1022285
20:00−7ю12840 0.0 102421